Content
SEND FEEDBACK

Canada Flag

ANCIENNE LORETTE, QUEBEC


Home > North America > Canada > Quebec
Elevation: 230 feet     Latitude: 46 48N     Longitude: 071 22W

WEATHER
 
SELECT A DAY
Number of Records: 215,370;   Date Range: 6/30/96 - 3/22/16
 
SHARE

PRINT THIS DATA

[ ← Previous Day ]
WEATHER ALMANAC - SEPTEMBER 19, 2013
[ Next Day → ]
[ °C ]   °F
Weather ElementAverageHighLow
Temperature58.1 °F71.6 °F (3:00 pm)44 °F (5:00 am)
Dewpoint47 °F54 °F (2:00 pm) (7:00 pm)
Humidity74.2 %100 % (6:00 am)43 % (5:00 pm)
Barometer28.18 in30.10 in (1:00 am) (7:00 pm)
Wind Speed9.4 mph18.4 mph (8:40 am)
Wind Gust21.9 mph (3:00 pm)
Weather ElementAverage
Visibility19 mi
Wind DirectionSW (229.4 °)

Weather ElementTotal
Precipitation---
Heating Degree Days7.2 (Base 65)
Growing Degree Days7.8 (Base 50)
Averaged from 32 records on September 19, 2013
WEATHER CONDITIONS BREAKOUT
WIND DIRECTION BREAKOUT
WEATHER BY HOUR - SEPTEMBER 19, 2013
[ °C ]   °F
Local TimeTemperatureDewpointHumidityBarometerVisibilityWind DirectionWind SpeedGust SpeedPrecipitationEventsConditions
1:00 AM51.8 °F46.4 °F82 %30.10 in15.0 miWSW (240°)6.9 mphPartly Cloudy
2:00 AM52.0 °F48.0 °F80 %30.09 inSW (230°)5.8 mph
2:00 AM50.0 °F48.2 °F94 %30.10 in15.0 miWSW (240°)9.2 mphPartly Cloudy
3:00 AM50.0 °F46.4 °F87 %30.09 in15.0 miWSW (250°)10.4 mphPartly Cloudy
4:00 AM50.0 °F46.4 °F87 %30.09 in15.0 miWSW (240°)10.4 mphPartly Cloudy
5:00 AM44.0 °F43.0 °F94 %30.08 inEast (80°)1.2 mph
5:00 AM48.2 °F44.6 °F87 %30.09 in15.0 miWest (260°)4.6 mphPartly Cloudy
6:00 AM44.6 °F44.6 °F100 %30.09 in15.0 miWest (270°)2.3 mphPartly Cloudy
7:00 AM44.6 °F42.8 °F93 %30.10 in15.0 miWest (270°)3.5 mphPartly Cloudy
8:00 AM51.0 °F50.0 °F94 %30.09 inWSW (240°)6.9 mph
8:00 AM50.0 °F48.2 °F94 %30.10 in10.0 miSW (230°)13.8 mphOvercast
8:16 AM50.0 °F0.0 °F6.0 miSW (230°)16.1 mphOvercast
8:40 AM50.0 °F0.0 °F10.0 miWSW (240°)18.4 mphPartly Cloudy
9:00 AM51.8 °F50.0 °F94 %30.09 in10.0 miWSW (240°)17.3 mphPartly Cloudy
10:00 AM53.6 °F50.0 °F88 %30.09 in15.0 miWSW (240°)15.0 mphPartly Cloudy
11:00 AM57.2 °F51.8 °F82 %30.09 in20.0 miWSW (240°)12.7 mphPartly Cloudy
11:00 AM57.0 °F52.0 °F78 %30.06 inWSW (250°)9.2 mph
12:00 PM64.4 °F53.6 °F68 %30.07 in30.0 miWSW (240°)9.2 mphPartly Cloudy
1:00 PM66.2 °F53.6 °F64 %30.06 in30.0 miSSW (210°)11.5 mphPartly Cloudy
2:00 PM69.0 °F54.0 °F49 %30.01 inWSW (240°)8.1 mph
2:00 PM69.8 °F53.6 °F56 %30.04 in30.0 miWSW (240°)13.8 mphPartly Cloudy
3:00 PM71.6 °F51.8 °F50 %30.02 in30.0 miWSW (240°)16.1 mph21.9 mphScattered Clouds
4:00 PM71.6 °F51.8 °F50 %30.01 in30.0 miWSW (250°)17.3 mphScattered Clouds
5:00 PM71.6 °F51.8 °F50 %30.00 in30.0 miWSW (250°)12.7 mphScattered Clouds
5:00 PM70.0 °F52.0 °F43 %29.98 inWSW (250°)10.4 mph
6:00 PM68.0 °F51.8 °F56 %30.01 in30.0 miWSW (240°)9.2 mphMostly Cloudy
7:00 PM66.2 °F51.8 °F60 %30.02 in30.0 miWSW (240°)8.1 mphMostly Cloudy
8:00 PM65.0 °F53.0 °F57 %30.01 inSW (230°)3.5 mph
8:00 PM64.4 °F53.6 °F68 %30.03 in15.0 miSW (230°)8.1 mphOvercast
9:00 PM62.6 °F51.8 °F68 %30.04 in15.0 miSW (220°)8.1 mphMostly Cloudy
10:00 PM60.8 °F53.6 °F77 %30.04 in15.0 miWest (270°)2.3 mphMostly Cloudy
11:00 PM60.8 °F53.6 °F77 %30.04 in15.0 miCalmMostly Cloudy
Hourly data recorded from CYQB, located miles away from Ancienne Lorette, Quebec




STORIES FROM OUR PARTNERS